TimeAKDT,TemperatureF,Dew PointF,Humidity,Sea Level PressureIn,VisibilityMPH,Wind Direction,Wind SpeedMPH,Gust SpeedMPH,PrecipitationIn,Events,Conditions,WindDirDegrees,DateUTC
12:16 AM,42.8,35.6,76,30.22,10.0,Calm,Calm,-,N/A,,Clear,0,2013-05-10 08:16:00
12:36 AM,44.6,35.6,71,30.22,10.0,Calm,Calm,-,N/A,,Clear,0,2013-05-10 08:36:00
12:56 AM,44.6,37.4,76,30.22,10.0,Calm,Calm,-,N/A,,Clear,0,2013-05-10 08:56:00
1:56 AM,-9999,-9999,N/A,30.21,-9999.0,Calm,Calm,-,N/A,,Unknown,0,2013-05-10 09:56:00
2:16 AM,42.8,35.6,76,30.22,10.0,Calm,Calm,-,N/A,,Clear,0,2013-05-10 10:16:00
2:36 AM,42.8,35.6,76,30.21,10.0,Calm,Calm,-,N/A,,Clear,0,2013-05-10 10:36:00
2:56 AM,39.2,35.6,87,30.21,10.0,SW,3.5,-,N/A,,Clear,230,2013-05-10 10:56:00
3:16 AM,39.2,33.8,81,30.21,10.0,WSW,4.6,-,N/A,,Clear,250,2013-05-10 11:16:00
3:36 AM,37.4,33.8,87,30.21,10.0,WSW,4.6,-,N/A,,Clear,250,2013-05-10 11:36:00
3:56 AM,37.4,33.8,87,30.21,10.0,WSW,3.5,-,N/A,,Clear,250,2013-05-10 11:56:00
4:16 AM,37.4,33.8,87,30.21,10.0,WSW,3.5,-,N/A,,Clear,250,2013-05-10 12:16:00
4:36 AM,37.4,33.8,87,30.21,10.0,WSW,3.5,-,N/A,,Clear,250,2013-05-10 12:36:00
4:56 AM,37.4,33.8,87,30.21,10.0,WSW,3.5,-,N/A,,Clear,250,2013-05-10 12:56:00
5:16 AM,39.2,35.6,87,30.20,10.0,Calm,Calm,-,N/A,,Clear,0,2013-05-10 13:16:00
5:36 AM,39.2,35.6,87,30.20,10.0,Calm,Calm,-,N/A,,Clear,0,2013-05-10 13:36:00
5:56 AM,39.2,35.6,87,30.20,10.0,Calm,Calm,-,N/A,,Clear,0,2013-05-10 13:56:00
6:16 AM,41.0,35.6,81,30.19,10.0,Calm,Calm,-,N/A,,Clear,0,2013-05-10 14:16:00
6:36 AM,42.8,37.4,81,30.19,10.0,Calm,Calm,-,N/A,,Clear,0,2013-05-10 14:36:00
6:56 AM,44.6,37.4,76,30.19,10.0,Calm,Calm,-,N/A,,Clear,0,2013-05-10 14:56:00
7:56 AM,48.2,37.4,66,30.18,10.0,Calm,Calm,-,N/A,,Clear,0,2013-05-10 15:56:00
8:16 AM,50.0,39.2,66,30.18,10.0,ENE,3.5,-,N/A,,Clear,60,2013-05-10 16:16:00
8:50 AM,48.2,35.6,62,30.17,10.0,NE,5.8,-,N/A,,Clear,50,2013-05-10 16:50:00
9:56 AM,51.8,39.2,62,30.17,10.0,East,5.8,-,N/A,,Clear,90,2013-05-10 17:56:00
10:16 AM,53.6,37.4,54,30.17,10.0,East,5.8,-,N/A,,Clear,80,2013-05-10 18:16:00
10:36 AM,53.6,35.6,51,30.17,10.0,ENE,6.9,-,N/A,,Clear,60,2013-05-10 18:36:00
10:56 AM,53.6,35.6,51,30.16,10.0,ENE,6.9,-,N/A,,Clear,70,2013-05-10 18:56:00
11:16 AM,55.4,37.4,51,30.17,10.0,ENE,3.5,-,N/A,,Clear,70,2013-05-10 19:16:00
11:56 AM,57.2,37.4,48,30.15,10.0,East,8.1,-,N/A,,Clear,80,2013-05-10 19:56:00
12:16 PM,57.2,37.4,48,30.15,10.0,East,4.6,-,N/A,,Clear,90,2013-05-10 20:16:00
12:36 PM,57.2,37.4,48,30.14,10.0,ENE,5.8,-,N/A,,Clear,70,2013-05-10 20:36:00
12:56 PM,60.8,37.4,42,30.14,10.0,ENE,6.9,-,N/A,,Clear,70,2013-05-10 20:56:00
1:16 PM,57.2,37.4,48,30.14,10.0,ENE,5.8,-,N/A,,Clear,60,2013-05-10 21:16:00
1:36 PM,60.8,39.2,45,30.13,10.0,Calm,Calm,-,N/A,,Clear,0,2013-05-10 21:36:00
1:56 PM,59.0,39.2,48,30.13,10.0,ENE,6.9,-,N/A,,Clear,70,2013-05-10 21:56:00
2:16 PM,57.2,37.4,48,30.13,10.0,ENE,4.6,-,N/A,,Clear,60,2013-05-10 22:16:00
2:56 PM,57.2,35.6,44,30.12,10.0,ENE,3.5,-,N/A,,Clear,70,2013-05-10 22:56:00
3:16 PM,59.0,37.4,45,30.12,10.0,Calm,Calm,-,N/A,,Clear,0,2013-05-10 23:16:00
3:36 PM,62.6,39.2,42,30.12,10.0,North,3.5,-,N/A,,Clear,10,2013-05-10 23:36:00
3:56 PM,62.6,37.4,39,30.11,10.0,East,6.9,-,N/A,,Clear,80,2013-05-10 23:56:00
4:16 PM,60.8,37.4,42,30.10,10.0,ENE,5.8,-,N/A,,Clear,70,2013-05-11 00:16:00
4:36 PM,57.2,39.2,51,30.09,10.0,NNE,5.8,-,N/A,,Clear,30,2013-05-11 00:36:00
4:56 PM,59.0,37.4,45,30.09,10.0,East,5.8,-,N/A,,Clear,80,2013-05-11 00:56:00
5:16 PM,55.4,42.8,63,30.09,10.0,East,4.6,-,N/A,,Clear,90,2013-05-11 01:16:00
5:36 PM,57.2,37.4,48,30.08,10.0,ENE,4.6,-,N/A,,Clear,60,2013-05-11 01:36:00
5:56 PM,55.4,37.4,51,30.08,10.0,East,3.5,-,N/A,,Scattered Clouds,80,2013-05-11 01:56:00
6:16 PM,-9999,-9999,N/A,30.06,10.0,Calm,Calm,-,N/A,,Scattered Clouds,0,2013-05-11 02:16:00
6:36 PM,57.2,39.2,51,30.06,10.0,NE,3.5,-,N/A,,Scattered Clouds,40,2013-05-11 02:36:00
6:56 PM,59.0,39.2,48,30.06,10.0,Calm,Calm,-,N/A,,Partly Cloudy,0,2013-05-11 02:56:00
7:16 PM,57.2,39.2,51,30.05,10.0,Calm,Calm,-,N/A,,Partly Cloudy,0,2013-05-11 03:16:00
7:36 PM,57.2,39.2,51,30.04,10.0,Calm,Calm,-,N/A,,Partly Cloudy,0,2013-05-11 03:36:00
7:56 PM,57.2,39.2,51,30.04,10.0,Calm,Calm,-,N/A,,Clear,0,2013-05-11 03:56:00
8:16 PM,57.2,39.2,51,30.04,10.0,Calm,Calm,-,N/A,,Partly Cloudy,0,2013-05-11 04:16:00
8:36 PM,55.4,41.0,58,30.04,10.0,Calm,Calm,-,N/A,,Partly Cloudy,0,2013-05-11 04:36:00
8:56 PM,55.4,41.0,58,30.04,10.0,Calm,Calm,-,N/A,,Partly Cloudy,0,2013-05-11 04:56:00
9:36 PM,53.6,41.0,62,30.04,10.0,NNE,3.5,-,N/A,,Partly Cloudy,30,2013-05-11 05:36:00
9:56 PM,53.6,39.2,58,30.04,10.0,Calm,Calm,-,N/A,,Partly Cloudy,0,2013-05-11 05:56:00
10:16 PM,51.8,41.0,67,30.04,10.0,Calm,Calm,-,N/A,,Mostly Cloudy,0,2013-05-11 06:16:00
10:36 PM,51.8,41.0,67,30.03,10.0,Calm,Calm,-,N/A,,Overcast,0,2013-05-11 06:36:00
10:56 PM,50.0,42.8,76,30.04,10.0,ENE,4.6,-,N/A,,Overcast,60,2013-05-11 06:56:00
11:16 PM,48.2,41.0,76,30.04,10.0,Calm,Calm,-,N/A,,Overcast,0,2013-05-11 07:16:00
11:36 PM,48.2,41.0,76,30.03,10.0,Calm,Calm,-,N/A,,Overcast,0,2013-05-11 07:36:00
11:56 PM,50.0,39.2,66,30.03,10.0,East,3.5,-,N/A,,Overcast,100,2013-05-11 07:56:00